NUSAT 1 (FRESCO)

Last updated on Thu Jun 22 2017 00:17:34 GMT+0000 (Coordinated Universal Time)

1 41557U 16033B 17172.53521156 .00001305 00000-0 51863-4 0 9997 2 41557 97.4632 252.0522 0014135 359.3241 0.7976 15.27055978 59095

Satellite not in orbit

NUSAT 1 (FRESCO)